Location: Brookview Estates
(36.0476°N, 86.6931°W)
Time: 09:29:55
(UTC+00:00)

USA 234 - Pass Details

Date: 30 March 2020
Orbit: 1102 x 1106 km, 123.0° (Epoch: 14 May)

Event Time Altitude Azimuth Distance (km) Brightness Sun altitude
Rises 09:01:44 0° 127° (SE) 3,906 6.4 -30.1°
Reaches altitude 10° 09:04:12 10° 125° (SE) 2,951 5.7 -29.7°
Maximum altitude 09:10:41 72° 43° (NE) 1,153 3.4 -28.6°
Drops below altitude 10° 09:17:11 10° 320° (NW) 2,962 5.4 -27.4°
Sets 09:19:41 0° 319° (NW) 3,922 6.0 -27.0°
